Time,TemperatureF,DewpointF,PressureIn,WindDirection,WindDirectionDegrees,WindSpeedMPH,WindSpeedGustMPH,Humidity,HourlyPrecipIn,Conditions,Clouds,dailyrainin,SoftwareType,DateUTC
2013-03-06 00:03:00,35.9,27.0,31.16,North,355,0.0,-999.0,70,-99.99,,,0.00,weatherlink.com 1.10,2013-03-06 06:03:00,
2013-03-06 00:18:00,35.0,26.0,31.16,North,355,0.0,-999.0,70,-99.99,,,0.00,weatherlink.com 1.10,2013-03-06 06:18:00,
2013-03-06 00:33:00,34.3,25.0,31.17,North,355,0.0,-999.0,70,-99.99,,,0.00,weatherlink.com 1.10,2013-03-06 06:33:00,
2013-03-06 00:48:00,34.2,26.0,31.18,North,355,0.0,-999.0,72,-99.99,,,0.00,weatherlink.com 1.10,2013-03-06 06:48:00,
2013-03-06 01:03:00,33.7,26.0,31.18,North,355,0.0,-999.0,74,-99.99,,,0.00,weatherlink.com 1.10,2013-03-06 07:03:00,
2013-03-06 01:18:00,32.8,26.0,31.18,North,355,0.0,-999.0,76,-99.99,,,0.00,weatherlink.com 1.10,2013-03-06 07:18:00,
2013-03-06 01:33:00,32.2,25.0,31.18,North,355,0.0,-999.0,76,-99.99,,,0.00,weatherlink.com 1.10,2013-03-06 07:33:00,
2013-03-06 01:48:00,31.7,25.0,31.18,North,355,0.0,-999.0,77,-99.99,,,0.00,weatherlink.com 1.10,2013-03-06 07:48:00,
2013-03-06 02:03:00,31.5,26.0,31.18,North,355,0.0,-999.0,79,-99.99,,,0.00,weatherlink.com 1.10,2013-03-06 08:03:00,
2013-03-06 02:18:00,31.0,26.0,31.18,North,355,0.0,-999.0,80,-99.99,,,0.00,weatherlink.com 1.10,2013-03-06 08:18:00,
2013-03-06 02:33:00,31.1,26.0,31.19,North,355,0.0,-999.0,80,-99.99,,,0.00,weatherlink.com 1.10,2013-03-06 08:33:00,
2013-03-06 02:48:00,31.9,26.0,31.19,North,355,0.0,-999.0,78,-99.99,,,0.00,weatherlink.com 1.10,2013-03-06 08:48:00,
2013-03-06 03:03:00,32.7,26.0,31.18,North,355,0.0,-999.0,75,-99.99,,,0.00,weatherlink.com 1.10,2013-03-06 09:03:00,
2013-03-06 03:18:00,33.0,25.0,31.18,North,355,0.0,-999.0,73,-99.99,,,0.00,weatherlink.com 1.10,2013-03-06 09:18:00,
2013-03-06 03:33:00,33.2,25.0,31.18,North,355,0.0,-999.0,72,-99.99,,,0.00,weatherlink.com 1.10,2013-03-06 09:33:00,
2013-03-06 03:48:00,33.3,25.0,31.19,North,355,0.0,-999.0,71,-99.99,,,0.00,weatherlink.com 1.10,2013-03-06 09:48:00,
2013-03-06 04:03:00,33.1,24.0,31.19,North,355,0.0,-999.0,70,-99.99,,,0.00,weatherlink.com 1.10,2013-03-06 10:03:00,
2013-03-06 04:18:00,32.0,24.0,31.20,North,355,0.0,-999.0,73,-99.99,,,0.00,weatherlink.com 1.10,2013-03-06 10:18:00,
2013-03-06 04:33:00,30.6,24.0,31.20,North,355,0.0,-999.0,77,-99.99,,,0.00,weatherlink.com 1.10,2013-03-06 10:33:00,
2013-03-06 04:48:00,29.7,24.0,31.20,North,355,0.0,-999.0,79,-99.99,,,0.00,weatherlink.com 1.10,2013-03-06 10:48:00,
2013-03-06 05:03:00,30.3,24.0,31.21,North,355,0.0,-999.0,78,-99.99,,,0.00,weatherlink.com 1.10,2013-03-06 11:03:00,
2013-03-06 05:18:00,30.0,24.0,31.21,North,355,0.0,-999.0,78,-99.99,,,0.00,weatherlink.com 1.10,2013-03-06 11:18:00,
2013-03-06 05:33:00,29.9,24.0,31.21,North,355,0.0,-999.0,80,-99.99,,,0.00,weatherlink.com 1.10,2013-03-06 11:33:00,
2013-03-06 05:48:00,30.5,25.0,31.22,North,355,0.0,-999.0,80,-99.99,,,0.00,weatherlink.com 1.10,2013-03-06 11:48:00,
2013-03-06 06:03:00,30.7,25.0,31.22,North,355,0.0,-999.0,78,-99.99,,,0.00,weatherlink.com 1.10,2013-03-06 12:03:00,
2013-03-06 06:18:00,30.4,24.0,31.23,North,355,0.0,-999.0,78,-99.99,,,0.00,weatherlink.com 1.10,2013-03-06 12:18:00,
2013-03-06 06:33:00,29.6,24.0,31.24,North,355,0.0,-999.0,78,-99.99,,,0.00,weatherlink.com 1.10,2013-03-06 12:33:00,
2013-03-06 06:48:00,28.7,23.0,31.24,North,355,0.0,-999.0,79,-99.99,,,0.00,weatherlink.com 1.10,2013-03-06 12:48:00,
2013-03-06 07:03:00,28.2,24.0,31.24,North,355,3.0,-999.0,83,-99.99,,,0.00,weatherlink.com 1.10,2013-03-06 13:03:00,
2013-03-06 07:18:00,31.4,26.0,31.24,North,355,1.0,-999.0,80,-99.99,,,0.00,weatherlink.com 1.10,2013-03-06 13:18:00,
2013-03-06 07:33:00,33.4,27.0,31.24,North,355,2.0,-999.0,76,-99.99,,,0.00,weatherlink.com 1.10,2013-03-06 13:33:00,
2013-03-06 07:48:00,35.6,27.0,31.25,NNW,343,0.0,-999.0,72,-99.99,,,0.00,weatherlink.com 1.10,2013-03-06 13:48:00,
2013-03-06 08:04:00,38.1,28.0,31.26,North,350,0.0,-999.0,68,-99.99,,,0.00,weatherlink.com 1.10,2013-03-06 14:04:00,
2013-03-06 08:19:00,40.5,29.0,31.27,North,355,1.0,-999.0,64,-99.99,,,0.00,weatherlink.com 1.10,2013-03-06 14:19:00,
2013-03-06 08:34:00,43.3,30.0,31.27,North,355,2.0,-999.0,59,-99.99,,,0.00,weatherlink.com 1.10,2013-03-06 14:34:00,
2013-03-06 08:49:00,45.2,28.0,31.27,NNW,346,11.0,-999.0,51,-99.99,,,0.00,weatherlink.com 1.10,2013-03-06 14:49:00,
2013-03-06 09:04:00,47.1,29.0,31.28,NE,41,3.0,-999.0,50,-99.99,,,0.00,weatherlink.com 1.10,2013-03-06 15:04:00,
2013-03-06 09:19:00,47.4,28.0,31.28,North,5,7.0,-999.0,47,-99.99,,,0.00,weatherlink.com 1.10,2013-03-06 15:19:00,
2013-03-06 09:34:00,48.1,28.0,31.28,North,355,6.0,-999.0,46,-99.99,,,0.00,weatherlink.com 1.10,2013-03-06 15:34:00,
2013-03-06 09:49:00,48.3,28.0,31.27,NNE,15,6.0,-999.0,46,-99.99,,,0.00,weatherlink.com 1.10,2013-03-06 15:49:00,
2013-03-06 10:04:00,49.9,28.0,31.27,North,351,6.0,-999.0,43,-99.99,,,0.00,weatherlink.com 1.10,2013-03-06 16:04:00,
2013-03-06 10:19:00,50.7,28.0,31.27,North,9,3.0,-999.0,41,-99.99,,,0.00,weatherlink.com 1.10,2013-03-06 16:19:00,
2013-03-06 10:35:00,51.9,28.0,31.28,ENE,71,2.0,-999.0,40,-99.99,,,0.00,weatherlink.com 1.10,2013-03-06 16:35:00,
2013-03-06 10:49:00,53.0,30.0,31.27,North,360,2.0,-999.0,41,-99.99,,,0.00,weatherlink.com 1.10,2013-03-06 16:49:00,
2013-03-06 11:04:00,54.2,29.0,31.27,NNW,348,7.0,-999.0,38,-99.99,,,0.00,weatherlink.com 1.10,2013-03-06 17:04:00,
2013-03-06 11:19:00,55.3,29.0,31.25,NE,34,3.0,-999.0,36,-99.99,,,0.00,weatherlink.com 1.10,2013-03-06 17:19:00,
2013-03-06 11:34:00,56.2,29.0,31.24,NNW,342,5.0,-999.0,36,-99.99,,,0.00,weatherlink.com 1.10,2013-03-06 17:34:00,
2013-03-06 11:49:00,56.8,27.0,31.24,NNE,27,5.0,-999.0,32,-99.99,,,0.00,weatherlink.com 1.10,2013-03-06 17:49:00,
2013-03-06 12:04:00,57.3,29.0,31.23,NNE,28,4.0,-999.0,34,-99.99,,,0.00,weatherlink.com 1.10,2013-03-06 18:04:00,
2013-03-06 12:19:00,58.6,28.0,31.23,North,5,0.0,-999.0,31,-99.99,,,0.00,weatherlink.com 1.10,2013-03-06 18:19:00,
2013-03-06 12:34:00,59.0,30.0,31.22,NNE,16,0.0,-999.0,33,-99.99,,,0.00,weatherlink.com 1.10,2013-03-06 18:34:00,
2013-03-06 12:49:00,59.3,29.0,31.21,North,9,0.0,-999.0,32,-99.99,,,0.00,weatherlink.com 1.10,2013-03-06 18:49:00,
2013-03-06 13:04:00,60.3,29.0,31.20,NNW,347,3.0,-999.0,31,-99.99,,,0.00,weatherlink.com 1.10,2013-03-06 19:04:00,
2013-03-06 13:19:00,60.5,29.0,31.19,North,349,5.0,-999.0,30,-99.99,,,0.00,weatherlink.com 1.10,2013-03-06 19:19:00,
2013-03-06 13:35:00,61.3,29.0,31.18,NNW,344,5.0,-999.0,30,-99.99,,,0.00,weatherlink.com 1.10,2013-03-06 19:35:00,
2013-03-06 13:50:00,62.2,30.0,31.16,SW,223,1.0,-999.0,30,-99.99,,,0.00,weatherlink.com 1.10,2013-03-06 19:50:00,
2013-03-06 14:05:00,62.1,25.0,31.16,NNW,346,0.0,-999.0,24,-99.99,,,0.00,weatherlink.com 1.10,2013-03-06 20:05:00,
2013-03-06 14:20:00,62.2,23.0,31.15,NNW,338,3.0,-999.0,22,-99.99,,,0.00,weatherlink.com 1.10,2013-03-06 20:20:00,
2013-03-06 14:35:00,62.6,26.0,31.14,SSW,199,1.0,-999.0,25,-99.99,,,0.00,weatherlink.com 1.10,2013-03-06 20:35:00,
2013-03-06 14:50:00,63.7,30.0,31.13,North,355,0.0,-999.0,28,-99.99,,,0.00,weatherlink.com 1.10,2013-03-06 20:50:00,
2013-03-06 15:05:00,64.6,29.0,31.13,SW,219,4.0,-999.0,26,-99.99,,,0.00,weatherlink.com 1.10,2013-03-06 21:05:00,
2013-03-06 15:20:00,65.0,29.0,31.12,SW,234,1.0,-999.0,26,-99.99,,,0.00,weatherlink.com 1.10,2013-03-06 21:20:00,
2013-03-06 15:35:00,63.6,27.0,31.12,NNE,28,2.0,-999.0,25,-99.99,,,0.00,weatherlink.com 1.10,2013-03-06 21:35:00,
2013-03-06 15:50:00,63.4,27.0,31.11,SE,135,0.0,-999.0,25,-99.99,,,0.00,weatherlink.com 1.10,2013-03-06 21:50:00,
2013-03-06 16:05:00,62.9,28.0,31.10,ENE,69,0.0,-999.0,27,-99.99,,,0.00,weatherlink.com 1.10,2013-03-06 22:05:00,
2013-03-06 16:20:00,62.7,28.0,31.10,ENE,69,0.0,-999.0,27,-99.99,,,0.00,weatherlink.com 1.10,2013-03-06 22:20:00,
2013-03-06 16:35:00,63.0,29.0,31.10,ENE,65,0.0,-999.0,28,-99.99,,,0.00,weatherlink.com 1.10,2013-03-06 22:35:00,
2013-03-06 16:50:00,63.3,27.0,31.09,ENE,65,0.0,-999.0,25,-99.99,,,0.00,weatherlink.com 1.10,2013-03-06 22:50:00,
2013-03-06 21:18:00,43.5,32.0,31.09,ENE,65,0.0,-999.0,65,-99.99,,,0.00,weatherlink.com 1.10,2013-03-07 03:18:00,
2013-03-06 21:35:00,42.5,33.0,31.09,ENE,65,0.0,-999.0,68,-99.99,,,0.00,weatherlink.com 1.10,2013-03-07 03:35:00,
2013-03-06 21:50:00,41.9,32.0,31.09,ENE,65,0.0,-999.0,69,-99.99,,,0.00,weatherlink.com 1.10,2013-03-07 03:50:00,
2013-03-06 22:05:00,41.6,32.0,31.08,ENE,65,0.0,-999.0,69,-99.99,,,0.00,weatherlink.com 1.10,2013-03-07 04:05:00,
2013-03-06 22:20:00,41.6,32.0,31.09,ENE,65,0.0,-999.0,68,-99.99,,,0.00,weatherlink.com 1.10,2013-03-07 04:20:00,
2013-03-06 22:35:00,41.6,32.0,31.11,ENE,65,0.0,-999.0,69,-99.99,,,0.00,weatherlink.com 1.10,2013-03-07 04:35:00,
2013-03-06 22:50:00,43.0,33.0,31.10,ENE,65,0.0,-999.0,67,-99.99,,,0.00,weatherlink.com 1.10,2013-03-07 04:50:00,
2013-03-06 23:05:00,43.2,33.0,31.09,ENE,65,0.0,-999.0,68,-99.99,,,0.00,weatherlink.com 1.10,2013-03-07 05:05:00,
2013-03-06 23:20:00,43.1,33.0,31.10,ENE,65,0.0,-999.0,68,-99.99,,,0.00,weatherlink.com 1.10,2013-03-07 05:20:00,
2013-03-06 23:35:00,42.4,33.0,31.09,ENE,65,0.0,-999.0,69,-99.99,,,0.00,weatherlink.com 1.10,2013-03-07 05:35:00,
2013-03-06 23:50:00,43.3,32.0,31.09,SSW,211,0.0,-999.0,65,-99.99,,,0.00,weatherlink.com 1.10,2013-03-07 05:50:00,